Regional Weather Roundup
Issued by NWS Grand Forks, ND

Home | Current Version | Previous Version | Graphics & Text | Print | Product List | Glossary On
Versions: 1 2 3 4 5 6 7 8 9 10 11 12 13 14 15 16 17 18 19 20 21 22 23 24 25 26 27 28 29 30 31 32 33 34 35 36 37 38 39 40 41 42 43 44 45 46 47 48 49 50
000
ASUS43 KFGF 292031
RWRFGF
PRAIRIE TO PINES  WEATHER ROUNDUP
NATIONAL WEATHER SERVICE EASTERN NORTH DAKOTA/GRAND FORKS ND
300 PM CDT SAT AUG 29 2015

 **SATELLITE DATA USED TO AUGMENT SKY COVER AT AUTOMATED STATIONS**
 *****  WEATHER ACROSS EASTERN NORTH DAKOTA  *****

CITY           SKY/WX    TMP DP  RH WIND       PRES   REMARKS
GRAND FORKS    PTSUNNY   79  68  69 S9        29.88F
GRAND FRKS AFB MOSUNNY   80  69  69 S9        29.88F
GRAND FRKS NWS   N/A     77 N/A N/A S15         N/A
DEVILS LAKE    PTSUNNY   81  64  57 S7        29.86F
FARGO          MOSUNNY   82  67  60 S14       29.92F
WAHPETON ARPT  PTCLDY    79  64  61 S13       29.94S
$$

 ***** WEATHER ACROSS CENTRAL AND WESTERN NORTH DAKOTA  *****

CITY           SKY/WX    TMP DP  RH WIND       PRES   REMARKS
BISMARCK       PTSUNNY   91  60  35 S7        29.89F HAZE    HX  90
MINOT          CLOUDY    89  51  27 S12       29.83F HAZE
JAMESTOWN      MOSUNNY   83  69  62 S6        29.90F
MINOT AFB      CLOUDY    93  53  26 S10       29.82F HX  90
GARRISON         N/A     92  56  29 S8        29.86F HX  90
WILLISTON      MOSUNNY   89  49  25 S5        29.85F HAZE
DICKINSON      MOSUNNY   98  39  13 S18G24    29.88F HX  93
HETTINGER      SUNNY     96  47  18 S12       29.94F HX  92
$$

 *****  OTHER AIRPORT OBSERVATIONS IN OUR AREA  *****

CITY           SKY/WX    TMP DP  RH WIND       PRES   REMARKS
WALHALLA       FAIR      75  75 100 MISG      29.84S
GRAFTON AIRPOR FAIR      79  72  78 SE12      29.87F
VALLEY CITY AR FAIR      77  72  83 S10       29.92S
CANDO          FAIR      84  59  42 S9        29.86F HAZE
CAVALIER APRT  FAIR      75  68  78 S9G17     29.84F
GWINNER        FAIR      81  70  69 SW10      29.93F
SHEYENNE NWR     N/A     81  66  61 SW10      29.95S
ROLLA            N/A     82  55  39 SW13      29.86F
 ***** THE ABOVE OBSERVATIONS ARE NON NWS ARE NOT QUALITY
       CONTROLLED AND MAY MIS-REPORT RAIN FOR SNOW...
$$

  *****  WEATHER ACROSS NORTHERN MINNESOTA  *****

CITY           SKY/WX    TMP DP  RH WIND       PRES   REMARKS
FLAG ISLAND    CLOUDY    70  66  88 S10       29.91F
WARROAD        CLOUDY    72  66  83 SE7       29.93S
ROSEAU         CLOUDY    73  66  78 SE8       29.91F
HALLOCK        CLOUDY    77  70  78 S15       29.87F
THF RVR FALLS  PTSUNNY  N/A N/A N/A S8        29.91F
BAUDETTE       CLOUDY    71  65  81 S8        29.94F
WASKISH        CLOUDY    75  66  73 SE5       29.95S
CROOKSTON      PTSUNNY   79  66  65 S15       29.91F
STEPHEN NDAWN    N/A     75  68  78 S12         N/A
GREENBUSH NDAW   N/A     75  70  83 S6          N/A
$$
  *****  WEATHER ACROSS CENTRAL AND WEST MINNESOTA  *****

CITY           SKY/WX    TMP DP  RH WIND       PRES   REMARKS
FOSSTON        PTSUNNY   79  64  61 S13       29.94F
BEMIDJI        PTSUNNY   76  66  72 S8        29.96F
PARK RAPIDS    PTSUNNY   79  64  60 S12       29.98F
ELBOW LAKE     FAIR      73  63  70 S13       29.98F
WADENA         PTSUNNY   75  63  64 S10       29.99F
DETROIT LAKES  MOSUNNY   79  64  61 S12       29.97F
MOORHEAD       MOSUNNY   81  66  61 S17       29.92F
FERGUS FALLS   MOSUNNY   79  66  65 S12       29.95F
MORRIS MN      MOSUNNY   77  63  61 SE12      29.98F
STAPLES        CLOUDY    73  61  64 S9        30.00F
$$
  *****  WEATHER ELSEWHERE ACROSS MINNESOTA  *****

CITY           SKY/WX    TMP DP  RH WIND       PRES   REMARKS
DULUTH         PTSUNNY   74  61  63 W8        30.02F
INTRNTL FALLS  CLOUDY    72  66  81 CALM      29.96F
ELY            PTSUNNY   72  63  73 CALM      30.00S
CLOQUET        CLOUDY    72  59  64 S5        30.03S
WHEATON        MOSUNNY   77  66  69 S13       29.96F
BRAINERD       CLOUDY    73  62  68 S7        30.02S
HIBBING        CLOUDY    73  63  70 SW3       30.00F
ALEXANDRIA     PTSUNNY   74  60  61 S10       30.03F
SAINT CLOUD    MOSUNNY   73  61  65 S8        30.03S
MINNEAPOLIS    PTSUNNY   72  61  68 VRB5      30.04F
$$

  *****  WEATHER ACROSS SOUTH DAKOTA  *****

CITY           SKY/WX    TMP DP  RH WIND       PRES   REMARKS
SIOUX FALLS    CLOUDY    71  62  73 S7        30.04F
BROOKINGS      MOSUNNY   75  64  69 S13       30.03F
WATERTOWN      MOSUNNY   77  65  66 S9        29.99F
HURON          SUNNY     83  69  62 S14       29.95F
SISSETON         N/A     83  64  52 SW14      29.94F
ABERDEEN       SUNNY     83  70  64 S10       29.94F
MITCHELL       SUNNY     80  69  69 S12G17    29.99F
PIERRE         SUNNY     92  63  38 S13       29.92F HX  93
MOBRIDGE       SUNNY     89  63  41 SE10      29.90F HAZE    HX  90
RAPID CITY     SUNNY     93  51  23 S13       29.99F HX  90
$$

  *****  SOME WEATHER IN NEARBY STATES *****

CITY           SKY/WX    TMP DP  RH WIND       PRES   REMARKS
GLASGOW MT     HAZE      87  44  22 SE8       29.83F VSB 3/4
GREAT FALLS MT CLOUDY    86  40  19 W8        29.82F HAZE
CHEYENNE WY    SUNNY     83  39  21 S13G23    30.25F
SCOTTSBLUFF NE SUNNY     93  42  17 S12       30.09F
OMAHA NE       CLOUDY    69  61  75 W5        30.07S
DES MOINES IA  CLOUDY    73  64  73 NW6       30.03S
DAVENPORT IA   CLOUDY    73  67  81 VRB5      30.00S
CHICAGO IL     CLOUDY    70  66  87 W6        30.00F
EAU CLAIRE WI  CLOUDY    68  59  73 VRB3      30.05F
LA CROSSE WI   CLOUDY    72  62  71 NW6       30.04S
$$

  *****  SOME NATIONAL WEATHER *****

CITY           SKY/WX    TMP DP  RH WIND       PRES   REMARKS
LA GUARDIA NY  PTSUNNY   84  58  40 S16       30.11F
RALEIGH NC     PTSUNNY   83  59  44 VRB3      30.17F
ATLANTA GA     LGT RAIN  78  67  68 SE6       30.15F
NEW ORLEANS LA MOSUNNY   88  63  43 VRB6      30.02F
OKLAHOMA CITY  MOSUNNY   91  65  41 N8        29.99F HX  93
ALBUQUERQUE NM MOSUNNY   86  47  25 NW9       30.24F
SALT LAKE CITY CLOUDY    93  41  16 S17G29    30.01F
LOS ANGELES CA SUNNY     83  67  58 W12       29.89F
BOISE ID       CLOUDY    89  40  17 SE12      29.85F
SEATTLE WA     PTSUNNY   64  56  75 S25G38    29.70R
$$

*** WEATHER ACROSS MANITOBA...SASKATCHEWAN AND ONTARIO ***
                ***ONTARIO***

CITY           SKY/WX    TMP DP  RH WIND       PRES   REMARKS
GERALDTON      CLOUDY    68  64  88 CALM      29.96S FOG
THUNDER BAY    CLOUDY    73  64  73 CALM      29.96F
SIOUX LOOKOUT  MOSUNNY   77  61  57 SW6       29.94F
TORONTO        CLOUDY    73  61  64 SE6       30.09F
BIG TROUT LK   SUNNY     81  59  47 W12G17    29.74F
PICKLE LAKE    MOSUNNY   81  55  41 W7        29.89F
DRYDEN         SUNNY     79  59  50 S6        29.94F
KENORA         CLOUDY    70  66  88 S6        29.93F
$$
                *** MANITOBA***

CITY           SKY/WX    TMP DP  RH WIND       PRES   REMARKS
BRANDON        PTSUNNY   88  59  37 SW15      29.79F SMOKE
DAUPHIN        SUNNY     84  64  51 SW8G17    29.71F
ISLAND LAKE    CLOUDY    77  57  50 S5        29.74F
PILOT MOUND      N/A     84  57  39 S14         N/A
THE PAS        PTSUNNY   79  59  50 S10       29.56F
THOMPSON       LGT RAIN  70  61  73 NE7       29.63F
WINNIPEG       PTSUNNY   73  68  83 S18G25    29.83F
LYNN LAKE      PTSUNNY   72  50  46 MISG      29.64F
CHURCHILL      CLOUDY    50  48  93 NE17      29.73  FOG
GILLAM         CLOUDY    70  57  64 CALM      29.70F
$$
                ***SASKATCHEWAN***

CITY           SKY/WX    TMP DP  RH WIND       PRES   REMARKS
ESTEVAN        CLOUDY    86  50  28 SW8       29.82F SMOKE
KINDERSLEY     PTSUNNY   81  45  28 S7        29.77F
LLOYDMINSTER   MOSUNNY   77  46  33 VRB2      29.72F
PRINCE ALBERT  CLOUDY    79  59  50 W13       29.65S SMOKE
REGINA         MOSUNNY   84  48  28 W15G21    29.79F
YORKTON        SUNNY     82  54  36 SW12G21   29.73F
N. BATTLEFORD  SUNNY     81  48  32 NW8       29.74S
LA RONGE       PTSUNNY   77  61  57 NW9       29.62R
SASKATOON      PTSUNNY   84  54  34 W12       29.73F
SWIFT CURRENT  SUNNY     84  45  24 W9        29.81F
$$
NOTE: THESE ARE AUTOMATED STATIONS WITH LIMITED QUALITY CONTROL
      "FAIR" INDICATES FEW OR NO CLOUDS BELOW 12,000 FEET WITH NO
      SIGNIFICANT WEATHER AND/OR OBSTRUCTIONS TO VISIBILITY.
      SKY/WX - SKY CONDITION AND SIGNIFICANT WEATHER.
      TMP - AIR TEMPERATURE.    DP   - DEWPOINT TEMPERATURE.
      RH  - RELATIVE HUMIDITY.  PRES - PRESSURE.
      HX  - HEAT INDEX.         WCI  - WIND CHILL INDEX.
$


USA.gov is the U.S. government's official web portal to all federal, state and local government web resources and services.